EW7835 Weather Reports


time (UTC)temp
C
wind
direction
speed
KPH
gust
KPH
rain 1hr
cm
rain 24hr
cm
rain mn
cm
humidity
%
barometer
mb
20260507140001 8 0.0 0.0 0.00 0.00 0.00 54 1006.9
20260507134601 8 0.0 0.0 0.00 0.00 0.00 53 1006.9
20260507133053 7 0.0 0.0 0.00 0.00 0.00 55 1007.0
20260507131548 7 0.0 0.0 0.00 0.00 0.00 55 1007.1
20260507130056 7 0.0 0.0 0.00 0.00 0.00 55 1007.1
20260507124540 6 0.0 0.0 0.00 0.00 0.00 58 1007.0
20260507123035 6 0.0 0.0 0.00 0.00 0.00 58 1007.0
20260507121528 5 0.0 0.0 0.00 0.00 0.00 57 1006.9
20260507120032 5 0.0 0.0 0.00 0.00 0.00 53 1006.8
20260507114519 5 0.0 0.0 0.00 0.00 0.00 47 1006.8
20260507113013 4 0.0 0.0 0.00 0.00 0.00 43 1006.7
20260507111509 4 0.0 0.0 0.00 0.00 0.00 35 1006.6
20260507110001 3 0.0 0.0 0.00 0.00 0.00 26 1006.4
20260507104557 3 0.0 0.0 0.00 0.00 0.00 13 1006.4
20260507103052 3 0.0 0.0 0.00 0.00 0.00 1 1006.2
20260507101557 3 0.0 0.0 0.00 0.00 0.00 1 1006.0
20260507100016 3 0.0 0.0 0.00 0.00 0.00 1 1006.1
20260507094509 3 0.0 0.0 0.00 0.00 0.00 1 1006.2
20260507093035 4 0.0 0.0 0.00 0.00 0.00 1 1006.1
20260507091531 4 0.0 0.0 0.00 0.00 0.00 1 1006.0
20260507090056 5 0.0 0.0 0.00 0.00 0.00 1 1006.0
20260507084557 5 0.0 0.0 0.00 0.00 0.00 1 1006.0
20260507083018 5 0.0 0.0 0.00 0.00 0.00 1 1005.9
20260507081517 5 0.0 0.0 0.00 0.00 0.00 1 1005.9
20260507080039 5 0.0 0.0 0.00 0.00 0.00 1 1005.9
20260507074536 5 0.0 0.0 0.00 0.00 0.00 1 1006.0
20260507073031 5 0.0 0.0 0.00 0.00 0.00 1 1005.8
20260507071525 6 0.0 0.0 0.00 0.00 0.00 1 1005.8
20260507070024 6 0.0 0.0 0.00 0.00 0.00 1 1005.7
20260507064524 6 0.0 0.0 0.00 0.00 0.00 1 1005.4
20260507063047 6 0.0 0.0 0.00 0.00 0.00 1 1005.1
20260507061537 6 0.0 0.0 0.00 0.00 0.00 1 1005.1
20260507060029 6 0.0 0.0 0.00 0.00 0.00 1 1005.2
20260507054531 6 0.0 0.0 0.00 0.00 0.00 1 1005.2
20260507053020 6 0.0 0.0 0.00 0.00 0.00 1 1005.3
20260507051517 6 0.0 0.0 0.00 0.00 0.00 1 1005.1
20260507050114 6 0.0 0.0 0.00 0.00 0.00 1 1005.3
20260507044541 6 0.0 0.0 0.00 0.00 0.00 1 1005.4
20260507043034 6 0.0 0.0 0.00 0.00 0.00 1 1005.2
20260507041534 7 0.0 0.0 0.00 0.00 0.00 1 1005.9
20260507040023 7 0.0 0.0 0.00 0.00 0.00 1 1005.5
20260507034519 7 0.0 0.0 0.00 0.00 0.00 1 1005.3
20260507033014 7 0.0 0.0 0.00 0.00 0.00 1 1005.5
20260507031507 7 0.0 0.0 0.00 0.00 0.00 1 1005.2
20260507030003 7 0.0 0.0 0.00 0.00 0.00 1 1005.4
20260507024625 7 0.0 0.0 0.00 0.00 0.00 1 1005.5
20260507023054 7 0.0 0.0 0.00 0.00 0.00 1 1005.6
20260507021549 7 0.0 0.0 0.00 0.00 0.00 1 1005.6
20260507020103 7 0.0 0.0 0.00 0.00 0.00 1 1005.7
20260507014544 7 0.0 0.0 0.00 0.00 0.00 1 1005.8
20260507013033 8 0.0 0.0 0.00 0.00 0.00 1 1005.5
20260507011529 8 0.0 0.0 0.00 0.00 0.00 1 1005.2
20260507010025 8 0.0 0.0 0.00 0.00 0.00 1 1004.9
20260507004531 8 0.0 0.0 0.00 0.00 0.00 1 1004.9
20260507003013 8 0.0 0.0 0.00 0.00 0.00 1 1004.8
20260507001508 8 0.0 0.0 0.00 0.00 0.00 1 1004.6
20260507000003 8 0.0 0.0 0.00 0.00 0.00 1 1004.1
20260506234602 8 0.0 0.0 0.00 0.00 0.00 1 1003.9
20260506233057 8 0.0 0.0 0.00 0.00 0.00 1 1003.6
20260506231556 8 0.0 0.0 0.00 0.00 0.00 1 1003.2
20260506230054 8 0.0 0.0 0.00 0.00 0.00 1 1003.0
20260506224539 8 0.0 0.0 0.00 0.00 0.00 1 1002.9
20260506223045 8 0.0 0.0 0.00 0.00 0.00 1 1002.8
20260506221528 8 0.0 0.0 0.00 0.00 0.00 1 1002.5
20260506220026 9 0.0 0.0 0.00 0.00 0.00 1 1002.3
20260506214517 9 0.0 0.0 0.00 0.00 0.00 1 1002.0
20260506213013 9 0.0 0.0 0.00 0.00 0.00 1 1002.1
20260506211513 10 0.0 0.0 0.00 0.00 0.00 1 1001.8
20260506210007 10 0.0 0.0 0.00 0.00 0.00 1 1001.6
20260506204532 12 0.0 0.0 0.00 0.00 0.00 1 1001.3
20260506203032 12 0.0 0.0 0.00 0.00 0.00 1 1001.2
20260506201534 12 0.0 0.0 0.00 0.00 0.00 1 1001.0
20260506200026 12 0.0 0.0 0.00 0.00 0.00 1 1000.9
20260506194528 12 0.0 0.0 0.00 0.00 0.00 1 1000.9
20260506193022 13 0.0 0.0 0.00 0.00 0.00 1 1000.9
20260506191550 13 0.0 0.0 0.00 0.00 0.00 1 1000.7
20260506190043 13 0.0 0.0 0.00 0.00 0.00 1 1000.7
20260506184509 13 0.0 0.0 0.00 0.00 0.00 1 1000.7
20260506183005 13 0.0 0.0 0.00 0.00 0.00 1 1000.7
20260506181557 13 0.0 0.0 0.00 0.00 0.00 1 1000.7
20260506180054 13 0.0 0.0 0.00 0.00 0.00 1 1001.1
20260506174549 13 0.0 0.0 0.00 0.00 0.00 1 1001.1
20260506173050 13 0.0 0.0 0.00 0.00 0.00 1 1001.0
20260506171539 13 0.0 0.0 0.00 0.00 0.00 1 1001.1
20260506170036 13 0.0 0.0 0.00 0.00 0.00 1 1001.2
20260506164528 13 0.0 0.0 0.00 0.00 0.00 1 1001.3
20260506163023 13 0.0 0.0 0.00 0.00 0.00 1 1001.4
20260506161518 13 0.0 0.0 0.00 0.00 0.00 1 1001.4
20260506160045 12 0.0 0.0 0.00 0.00 0.00 1 1001.5
20260506154542 12 0.0 0.0 0.00 0.00 0.00 1 1001.5
20260506153010 12 0.0 0.0 0.00 0.00 0.00 1 1001.7
20260506151502 12 0.0 0.0 0.00 0.00 0.00 1 1001.9
20260506150055 12 0.0 0.0 0.00 0.00 0.00 1 1002.2
20260506144602 12 0.0 0.0 0.00 0.00 0.00 1 1002.4
20260506143046 12 0.0 0.0 0.00 0.00 0.00 1 1002.6
20260506141541 12 0.0 0.0 0.00 0.00 0.00 1 1002.7